Terminal Aerodrome Forecast
Issued by NWS Twin Cities, MN

Home | Current Version | Previous Version | Text Only | Print | Product List | Glossary Off
Versions: 1 2 3 4 5 6 7 8 9 10 11 12 13 14 15 16 17 18 19 20 21 22 23 24 25 26

000
FTUS43 KMPX 262339
TAFMSP
TAF
KMSP 262339Z 2700/2806 12004KT P6SM SCT100 SCT250
     FM271400 15007KT P6SM SCT150 BKN250
     FM271700 15012KT P6SM SCT050 BKN150
     FM280200 14007KT P6SM SCT040 OVC100=

USA.gov is the U.S. government's official web portal to all federal, state and local government web resources and services.